K7TSD Weather Reports


time (UTC)temp
F
wind
direction
speed
knots
gust
knots
rain 1hr
in
rain 24hr
in
rain mn
in
humidity
%
barometer
mb
20260505140352 36 341 7.8 11.3 0.00 0.00 0.00 58 1013.0
20260505124903 33 342 4.3 7.0 0.00 0.00 0.00 76 1012.5
20260505124400 33 342 4.3 7.0 0.00 0.00 0.00 76 1012.5
20260505123856 33 342 4.3 7.0 0.00 0.00 0.00 76 1012.5
20260505123353 33 246 5.2 7.8 0.00 0.00 0.00 77 1012.3
20260505122849 32 325 7.0 8.7 0.00 0.00 0.00 78 1012.4
20260505122346 32 311 0.9 1.7 0.00 0.00 0.00 78 1012.4
20260505121843 32 302 0.9 2.6 0.00 0.00 0.00 80 1012.4
20260505121340 32 324 7.0 9.6 0.00 0.00 0.00 79 1012.4
20260505120836 32 327 3.5 5.2 0.00 0.00 0.00 80 1012.5
20260505120332 32 305 9.6 12.2 0.00 0.00 0.00 80 1012.4
20260505115606 31 306 6.1 9.6 0.00 0.00 0.00 81 1012.4
20260505115103 31 306 6.1 9.6 0.00 0.00 0.00 81 1012.4
20260505114600 31 332 5.2 7.8 0.00 0.00 0.00 81 1012.4
20260505114056 30 338 4.3 6.1 0.00 0.00 0.00 83 1012.2
20260505113553 30 335 0.9 2.6 0.00 0.00 0.00 83 1012.3
20260505113050 30 19 0.9 2.6 0.00 0.00 0.00 82 1012.1
20260505112546 30 359 0.0 0.9 0.00 0.00 0.00 83 1012.4
20260505112045 30 18 0.9 1.7 0.00 0.00 0.00 83 1012.4
20260505111544 30 7 2.6 5.2 0.00 0.00 0.00 83 1012.5
20260505111040 30 11 0.9 2.6 0.00 0.00 0.00 83 1012.7
20260505110537 30 343 1.7 5.2 0.00 0.00 0.00 82 1012.4
20260505102009 32 337 0.0 0.9 0.00 0.00 0.00 78 1012.8
20260505101507 32 349 5.2 11.3 0.00 0.00 0.00 78 1012.5
20260505101003 32 346 0.9 1.7 0.00 0.00 0.00 78 1012.4
20260505100501 33 264 0.0 0.0 0.00 0.00 0.00 78 1012.5
20260505095957 33 349 0.9 1.7 0.00 0.00 0.00 78 1012.3
20260505095453 33 344 0.0 1.7 0.00 0.00 0.00 78 1012.1
20260505094949 33 306 6.1 7.8 0.00 0.00 0.00 77 1012.2
20260505094447 34 0 1.7 4.3 0.00 0.00 0.00 76 1012.0
20260505093943 34 340 6.1 7.8 0.00 0.00 0.00 75 1011.8
20260505093440 35 358 9.6 12.2 0.00 0.00 0.00 72 1011.8
20260505092937 36 348 2.6 4.3 0.00 0.00 0.00 70 1011.8
20260505092434 37 337 6.1 7.0 0.00 0.00 0.00 67 1011.7
20260505091932 37 333 2.6 6.1 0.00 0.00 0.00 65 1012.0
20260505091429 37 356 7.8 9.6 0.00 0.00 0.00 63 1011.5
20260505090927 38 333 2.6 4.3 0.00 0.00 0.00 62 1011.8
20260505090425 38 333 6.1 7.8 0.00 0.00 0.00 61 1011.7
20260505085922 39 343 5.2 7.0 0.00 0.00 0.00 57 1011.7
20260505085420 40 340 4.3 6.1 0.00 0.00 0.00 56 1011.7
20260505084918 39 348 13.9 18.2 0.00 0.00 0.00 55 1011.5
20260505084416 40 292 2.6 4.3 0.00 0.00 0.00 55 1011.5
20260505083914 39 342 3.5 5.2 0.00 0.00 0.00 57 1011.5
20260505083411 39 340 8.7 9.6 0.00 0.00 0.00 58 1011.7
20260505082907 39 326 8.7 11.3 0.00 0.00 0.00 58 1011.6
20260505082403 39 318 7.8 9.6 0.00 0.00 0.00 59 1012.0
20260505081900 39 338 8.7 11.3 0.00 0.00 0.00 60 1011.6
20260505081356 39 308 9.6 12.2 0.00 0.00 0.00 60 1011.6
20260505080853 39 337 6.1 8.7 0.00 0.00 0.00 61 1011.7
20260505080349 39 338 6.1 8.7 0.00 0.00 0.00 62 1011.7
20260505075845 39 346 6.1 11.3 0.00 0.00 0.00 62 1012.1
20260505075342 39 311 8.7 11.3 0.00 0.00 0.00 62 1011.8
20260505074839 39 333 7.8 9.6 0.00 0.00 0.00 62 1012.0
20260505074336 39 317 3.5 5.2 0.00 0.00 0.00 63 1011.8
20260505073834 39 345 6.1 7.8 0.00 0.00 0.00 64 1012.0
20260505073332 39 336 0.9 2.6 0.00 0.00 0.00 64 1012.2
20260505072828 39 327 1.7 5.2 0.00 0.00 0.00 66 1012.2
20260505072324 39 343 0.0 0.0 0.00 0.00 0.00 67 1012.2
20260505071820 39 312 4.3 6.1 0.00 0.00 0.00 67 1012.3
20260505071317 39 350 2.6 4.3 0.00 0.00 0.00 67 1012.2
20260505070815 39 340 7.8 11.3 0.00 0.00 0.00 67 1012.4
20260505070311 39 315 0.0 0.0 0.00 0.00 0.00 68 1012.5
20260505065806 39 337 4.3 6.1 0.00 0.00 0.00 69 1012.5
20260505065304 39 326 0.9 1.7 0.00 0.00 0.00 70 1012.5
20260505064801 39 353 0.0 0.0 0.00 0.00 0.00 73 1012.7
20260505064258 38 355 0.9 2.6 0.00 0.00 0.00 75 1012.7
20260505063755 38 351 0.0 1.7 0.00 0.00 0.00 75 1012.4
20260505063252 38 358 0.0 0.0 0.00 0.00 0.00 75 1012.4
20260505062748 39 354 4.3 6.1 0.00 0.00 0.00 74 1012.5
20260505062241 39 355 3.5 6.1 0.00 0.00 0.00 70 1012.8
20260505061737 40 347 10.4 13.0 0.00 0.00 0.00 66 1012.4
20260505061235 40 355 6.1 7.8 0.00 0.00 0.00 66 1012.3
20260505060732 40 347 9.6 13.0 0.00 0.00 0.00 66 1012.5
20260505060229 40 326 12.2 14.8 0.00 0.00 0.00 66 1012.2
20260505055724 40 347 16.5 18.2 0.00 0.00 0.00 66 1012.2
20260505055221 40 355 4.3 7.0 0.00 0.00 0.00 67 1012.2
20260505054718 41 332 7.0 8.7 0.00 0.00 0.00 66 1012.3
20260505054216 41 343 11.3 14.8 0.00 0.00 0.00 66 1011.7
20260505053714 41 343 7.0 11.3 0.00 0.00 0.00 66 1012.0
20260505053210 41 334 1.7 2.6 0.00 0.00 0.00 67 1012.1
20260505052707 41 330 8.7 11.3 0.00 0.00 0.00 67 1012.1
20260505052204 41 325 5.2 9.6 0.00 0.00 0.00 68 1012.1
20260505051701 41 313 3.5 6.1 0.00 0.00 0.00 68 1012.0
20260505051159 41 353 10.4 12.2 0.00 0.00 0.00 67 1012.0
20260505050657 41 340 2.6 4.3 0.00 0.00 0.00 68 1011.6
20260505050155 42 349 9.6 12.2 0.00 0.00 0.00 68 1011.5
20260505041625 42 342 6.1 7.8 0.00 0.00 0.00 65 1011.1
20260505041122 42 348 7.8 8.7 0.00 0.00 0.00 64 1011.4
20260505040619 42 338 4.3 5.2 0.00 0.00 0.00 65 1011.1
20260505040116 42 338 11.3 20.9 0.00 0.00 0.00 65 1011.4
20260505035613 42 342 6.1 8.7 0.00 0.00 0.00 65 1011.1
20260505035109 42 335 3.5 6.1 0.00 0.00 0.00 64 1011.1
20260505034606 42 352 6.1 7.8 0.00 0.00 0.00 64 1010.9
20260505034102 42 344 6.1 7.8 0.00 0.00 0.00 64 1011.0
20260505033559 42 339 7.8 11.3 0.00 0.00 0.00 65 1010.9
20260505033058 42 327 3.5 6.1 0.00 0.00 0.00 65 1010.7
20260505032555 42 355 4.3 7.8 0.00 0.00 0.00 65 1010.8
20260505032051 42 304 3.5 7.8 0.00 0.00 0.00 65 1010.6
20260505031548 42 341 4.3 7.0 0.00 0.00 0.00 65 1010.6
20260505031045 42 339 0.9 1.7 0.00 0.00 0.00 66 1010.6
20260505030542 42 343 0.0 1.7 0.00 0.00 0.00 65 1010.8
20260505030038 42 344 0.9 1.7 0.00 0.00 0.00 65 1010.4
20260505025533 42 329 6.1 7.8 0.00 0.00 0.00 65 1010.6
20260505025033 42 327 4.3 6.1 0.00 0.00 0.00 64 1010.3
20260505024529 42 339 0.0 1.7 0.00 0.00 0.00 65 1010.6
20260505024026 42 332 0.9 1.7 0.00 0.00 0.00 65 1010.3
20260505023523 42 323 4.3 6.1 0.00 0.00 0.00 65 1010.4
20260505023021 42 332 0.9 4.3 0.00 0.00 0.00 65 1010.2
20260505022519 42 337 2.6 4.3 0.00 0.00 0.00 65 1010.4
20260505022016 42 326 4.3 6.1 0.00 0.00 0.00 64 1010.4
20260505021513 43 318 0.0 0.0 0.00 0.00 0.00 65 1010.6
20260505021009 42 340 0.9 2.6 0.00 0.00 0.00 66 1010.3
20260505020508 43 337 0.0 0.0 0.00 0.00 0.00 65 1010.6
20260505020006 43 312 0.9 4.3 0.00 0.00 0.00 65 1010.2
20260505015503 43 338 0.0 0.9 0.00 0.00 0.00 65 1010.0
20260505015000 43 325 0.0 0.0 0.00 0.00 0.00 64 1010.2
20260505014457 43 330 2.6 5.2 0.00 0.00 0.00 64 1010.2
20260505013954 43 333 0.9 1.7 0.00 0.00 0.00 64 1010.0
20260505013451 43 351 0.9 4.3 0.00 0.00 0.00 64 1010.0
20260505012948 44 341 2.6 7.8 0.00 0.00 0.00 63 1010.2
20260505012447 43 18 0.9 2.6 0.00 0.00 0.00 64 1010.2
20260505011943 44 333 3.5 5.2 0.00 0.00 0.00 64 1010.3
20260505011439 44 338 4.3 6.1 0.00 0.00 0.00 65 1010.3
20260505010936 44 319 1.7 2.6 0.00 0.00 0.00 64 1010.2
20260505010431 44 332 3.5 4.3 0.00 0.00 0.00 64 1010.3
20260505005928 44 20 1.7 4.3 0.00 0.00 0.00 63 1010.1
20260505005425 44 344 4.3 5.2 0.00 0.00 0.00 63 1010.6
20260505004922 44 331 3.5 4.3 0.00 0.00 0.00 64 1010.3
20260505004418 44 347 5.2 7.0 0.00 0.00 0.00 63 1010.1
20260505003916 44 325 7.8 11.3 0.00 0.00 0.00 62 1010.3
20260505003413 44 330 9.6 12.2 0.00 0.00 0.00 63 1010.3
20260505002909 44 340 2.6 4.3 0.00 0.00 0.00 63 1010.2
20260505002406 44 328 3.5 7.0 0.00 0.00 0.00 62 1010.2
20260505001904 45 341 4.3 7.0 0.00 0.00 0.00 63 1010.2
20260505001401 44 343 7.8 8.7 0.00 0.00 0.00 62 1010.3
20260505000858 45 293 7.8 11.3 0.00 0.00 0.00 62 1010.2
20260505000358 45 333 8.7 11.3 0.00 0.00 0.00 62 1010.3
20260504235852 45 342 7.8 8.7 0.00 0.00 0.00 62 1010.3
20260504235349 45 2 7.8 11.3 0.00 0.00 0.00 61 1010.2
20260504234846 45 345 9.6 11.3 0.00 0.00 0.00 61 1010.4
20260504234344 45 8 4.3 6.1 0.00 0.00 0.00 61 1010.2
20260504233840 46 336 6.1 7.8 0.00 0.00 0.00 60 1010.2
20260504233336 46 328 9.6 13.0 0.00 0.00 0.00 60 1010.1
20260504232833 46 331 9.6 12.2 0.00 0.00 0.00 60 1010.2
20260504232330 46 333 7.0 8.7 0.00 0.00 0.00 60 1009.8
20260504231826 46 336 6.1 7.0 0.00 0.00 0.00 60 1009.9
20260504231323 46 339 7.0 8.7 0.00 0.00 0.00 60 1009.8
20260504230819 46 4 9.6 13.0 0.00 0.00 0.00 61 1010.0
20260504230317 46 341 8.7 8.7 0.00 0.00 0.00 61 1010.1
20260504225816 46 326 5.2 7.0 0.00 0.00 0.00 61 1010.0
20260504225312 46 352 13.0 15.6 0.00 0.00 0.00 60 1009.8
20260504224809 46 7 7.8 9.6 0.00 0.00 0.00 62 1009.9
20260504224306 46 331 10.4 14.8 0.00 0.00 0.00 62 1010.0
20260504223802 46 359 4.3 8.7 0.00 0.00 0.00 62 1010.2
20260504223258 46 340 5.2 6.1 0.00 0.00 0.00 64 1010.1
20260504222755 46 346 7.0 9.6 0.00 0.00 0.00 62 1010.2
20260504222252 46 327 6.1 7.8 0.00 0.00 0.00 62 1010.0
20260504221750 46 353 8.7 12.2 0.00 0.00 0.00 61 1010.1
20260504221247 46 11 11.3 14.8 0.00 0.00 0.00 60 1010.1
20260504220743 47 341 7.8 11.3 0.00 0.00 0.00 60 1009.9
20260504220240 46 343 7.0 9.6 0.00 0.00 0.00 60 1010.2
20260504215738 46 359 10.4 13.0 0.00 0.00 0.00 61 1010.3
20260504215234 46 248 5.2 7.8 0.00 0.00 0.00 62 1010.3
20260504214730 47 5 3.5 6.1 0.00 0.00 0.00 62 1010.6
20260504214227 46 299 6.1 7.8 0.00 0.00 0.00 62 1010.6
20260504213723 45 4 4.3 6.1 0.00 0.00 0.00 62 1010.6
20260504213220 45 2 7.8 8.7 0.00 0.00 0.00 61 1010.6
20260504212717 46 5 3.5 7.0 0.00 0.00 0.00 64 1010.4
20260504212214 46 350 9.6 12.2 0.00 0.00 0.00 62 1010.6
20260504211711 46 21 6.1 8.7 0.00 0.00 0.00 61 1010.6
20260504211207 46 335 10.4 13.0 0.00 0.00 0.00 61 1010.7
20260504210705 46 354 8.7 9.6 0.00 0.00 0.00 61 1010.6
20260504210201 46 0 10.4 13.9 0.00 0.00 0.00 61 1010.9
20260504205658 45 7 7.0 8.7 0.00 0.00 0.00 62 1010.9
20260504205155 45 329 9.6 12.2 0.00 0.00 0.00 62 1011.0
20260504204654 44 4 8.7 9.6 0.00 0.00 0.00 62 1011.0
20260504204153 45 357 7.0 11.3 0.00 0.00 0.00 61 1011.3
20260504203651 45 344 6.1 7.8 0.00 0.00 0.00 62 1011.4
20260504203149 45 320 6.1 8.7 0.00 0.00 0.00 62 1010.8
20260504202648 45 350 7.0 7.8 0.00 0.00 0.00 63 1011.1
20260504202146 45 7 9.6 13.0 0.00 0.00 0.00 62 1011.0
20260504201643 46 347 6.1 8.7 0.00 0.00 0.00 62 1011.3
20260504201141 45 353 10.4 13.0 0.00 0.00 0.00 62 1011.0
20260504200637 46 335 10.4 13.0 0.00 0.00 0.00 61 1011.3
20260504200134 44 344 6.1 8.7 0.00 0.00 0.00 63 1011.0
20260504195630 45 329 10.4 13.0 0.00 0.00 0.00 64 1010.9
20260504195126 45 345 7.8 9.6 0.00 0.00 0.00 64 1010.9
20260504194623 45 359 13.0 17.4 0.00 0.00 0.00 64 1011.1
20260504194119 45 349 8.7 14.8 0.00 0.00 0.00 65 1011.1
20260504193615 44 5 11.3 13.0 0.00 0.00 0.00 64 1011.1
20260504193114 45 348 11.3 15.6 0.00 0.00 0.00 64 1011.3
20260504192612 45 18 7.8 9.6 0.00 0.00 0.00 65 1011.1
20260504192110 45 348 6.1 8.7 0.00 0.00 0.00 63 1011.1
20260504191608 45 12 10.4 13.9 0.00 0.00 0.00 63 1010.8
20260504191104 45 8 2.6 5.2 0.00 0.00 0.00 65 1010.9
20260504190600 45 4 13.9 18.2 0.00 0.00 0.00 65 1011.0
20260504190056 45 352 11.3 14.8 0.00 0.00 0.00 65 1010.6
20260504185553 45 339 5.2 7.0 0.00 0.00 0.00 65 1011.0
20260504185050 45 346 10.4 14.8 0.00 0.00 0.00 65 1010.8
20260504184545 46 30 3.5 5.2 0.00 0.00 0.00 65 1011.1
20260504184041 45 0 8.7 11.3 0.00 0.00 0.00 65 1010.7
20260504183538 45 348 5.2 7.8 0.00 0.00 0.00 65 1011.0
20260504183036 45 328 7.0 8.7 0.00 0.00 0.00 66 1011.1
20260504182533 44 4 6.1 8.7 0.00 0.00 0.00 67 1011.4
20260504182030 44 352 0.9 4.3 0.00 0.00 0.00 67 1011.3
20260504181527 43 347 9.6 11.3 0.00 0.00 0.00 67 1011.4
20260504181026 43 326 8.7 12.2 0.00 0.00 0.00 68 1011.4
20260504180524 44 326 2.6 4.3 0.00 0.00 0.00 69 1011.5
20260504180023 43 359 10.4 13.9 0.00 0.00 0.00 67 1011.5
20260504175519 43 23 5.2 7.8 0.00 0.00 0.00 68 1011.6
20260504175016 43 326 12.2 17.4 0.00 0.00 0.00 69 1011.7
20260504174514 42 347 8.7 9.6 0.00 0.00 0.00 71 1011.5
20260504174011 42 348 8.7 12.2 0.00 0.00 0.00 71 1011.6
20260504173508 43 336 4.3 6.1 0.00 0.00 0.00 71 1011.4
20260504173005 43 351 7.8 9.6 0.00 0.00 0.00 71 1011.8
20260504172501 42 353 4.3 7.8 0.00 0.00 0.00 72 1011.6
20260504171957 43 346 5.2 9.6 0.00 0.00 0.00 72 1011.7
20260504171454 43 3 7.0 8.7 0.00 0.00 0.00 71 1011.7
20260504170951 44 355 0.9 2.6 0.00 0.00 0.00 70 1011.6
20260504170447 43 20 4.3 6.1 0.00 0.00 0.00 70 1011.6
20260504160407 42 351 7.8 11.3 0.00 0.00 0.00 72 1011.7
20260504150831 42 335 3.5 5.2 0.00 0.00 0.00 73 1011.7
20260504150328 42 348 6.1 7.0 0.00 0.00 0.00 71 1011.7